Regional Weather Roundup
Issued by NWS Kansas City/Pleasant Hill, MO

Home | Current Version | Previous Version | Text Only | Print | Product List | Glossary On
Versions: 1 2 3 4 5 6 7 8 9 10 11 12 13 14 15 16 17 18 19 20 21 22 23 24 25 26 27
000
ASUS43 KEAX 271910
RWREAX

WEATHER ROUNDUP FOR EASTERN KANSAS AND NORTHWEST MISSOURI
NATIONAL WEATHER SERVICE KANSAS CITY/PLEASANT HILL MO
200 PM CDT TUE JUN 27 2017

KSZ040-057-103>105-MOZ028-029-037-043-272000-
...KANSAS CITY METROPOLITAN AREA...

CITY           SKY/WX    TMP DP  RH WIND       PRES   REMARKS
K.C. INTL      PTSUNNY   78  63  59 SE13G26   30.02F
K.C. DOWNTOWN  MOSUNNY   81  62  52 SE13G20   30.01F
LEES SUMMIT    MOSUNNY   78  63  59 S10       30.04F
OLATHE - IXD   MOSUNNY   79  65  62 SE13      30.02F
OLATHE - OJC   MOSUNNY   77  65  66 SE13      30.03F
LAWRENCE       MOSUNNY   80  66  62 SE13G21   30.01F

$$

MOZ001>008-011>017-020>025-030>033-038>040-044>046-053-054-272000-
...NORTHERN AND CENTRAL MISSOURI...

CITY           SKY/WX    TMP DP  RH WIND       PRES   REMARKS
ST. JOSEPH     MOSUNNY   78  64  61 SE14      30.02F
MOSBY          PTCLDY    75  59  57 S8G21     30.04F
WARRENSBURG    MOSUNNY   77  61  57 SE10      30.05F
WHITEMAN AFB   NOT AVBL
CLINTON        SUNNY     79  64  61 S8        30.06F
SEDALIA        MOSUNNY   78  65  63 SE14      30.08F
WARSAW         NOT AVBL
CHILLICOTHE      N/A     78  61  55 SE7G20    30.06F
KIRKSVILLE     SUNNY     76  52  43 SE9       30.09F

$$

MOZ041-047>049-056>058-063>065-088>090-097-272000-
...EASTERN AND SOUTHERN MISSOURI...

CITY           SKY/WX    TMP DP  RH WIND       PRES   REMARKS
ST. LOUIS INTL MOSUNNY   80  51  36 SE8       30.11F
SPIRIT OF STL  MOSUNNY   78  52  40 VRB3      30.09F
COLUMBIA       SUNNY     77  57  50 S10       30.09F
JEFFERSON CITY SUNNY     77  57  50 SE9       30.08F
ROLLA          SUNNY     77  58  51 CALM      30.09F
OSAGE BEACH    MOSUNNY   77  62  59 SW7       30.09F
SPRINGFIELD    MOSUNNY   78  64  61 SE6       30.07F
BRANSON        PTSUNNY   79  63  57 SE8       30.10F
JOPLIN         CLOUDY    82  68  62 SE8       30.04F
WEST PLAINS    CLOUDY    75  61  61 S5        30.12F

$$

IAZ060-094-KSZ022-034>040-054-083-096-NEZ052-066-093-272000-
...KANSAS...SOUTHEAST NEBRASKA AND IOWA...

CITY           SKY/WX    TMP DP  RH WIND       PRES   REMARKS
TOPEKA         PTSUNNY   80  68  66 SE15      29.99F
MANHATTAN      MOSUNNY   78  66  66 SE15      29.96F
EMPORIA        CLOUDY    74  67  78 S14       29.98F
CHANUTE        MOSUNNY   83  63  50 S12       30.02S
WICHITA        MOSUNNY   88  71  57 S18G26    29.94F HX  94
OMAHA          PTSUNNY   78  58  49 S15G24    29.97F
LINCOLN        MOSUNNY   79  63  57 S18G26    29.94F
FALLS CITY     MOSUNNY   76  63  64 SE17G23   29.99F
LAMONI         MOSUNNY   75  56  51 SE13G20   30.04F
DES MOINES     PTSUNNY   77  48  35 S12G21    30.04F

$$





USA.gov is the U.S. government's official web portal to all federal, state and local government web resources and services.